Weather History for Corpus Christi, TX

Change the Weather History Date:

Wednesday, July 17, 2013

  Actual Average Record
Temperature  
Mean Temperature 78 °F 84 °F  
Max Temperature 82 °F 93 °F 100 °F (1998)
Min Temperature 74 °F 75 °F 70 °F (1984)
Degree Days  
Heating Degree Days 0 0  
Month to date heating degree days 0 0  
Since 1 June heating degree days 0 0  
Since 1 July heating degree days 0 0  
Cooling Degree Days 13 19  
Month to date cooling degree days 351 319  
Year to date cooling degree days 2027 1682  
Since 1 June cooling degree days 1009 841  
Growing Degree Days 28 (Base 50)    
Moisture  
Dew Point 73 °F    
Average Humidity 85    
Maximum Humidity 91    
Minimum Humidity 79    
Precipitation  
Precipitation 1.84 in 0.08 in 1.84 in (2013)
Month to date precipitation 2.69 1.89  
Year to date precipitation 9.76 15.52  
Snow  
Snow 0.00 in - - ()
Month to date snowfall 0.0  
Since 1 June snowfall 0.0  
Since 1 July snowfall 0.0  
Snow Depth 0.00 in    
Sea Level Pressure  
Sea Level Pressure 30.09 in    
Wind  
Wind Speed 7 mph (ESE)    
Max Wind Speed 23 mph    
Max Gust Speed 28 mph    
Visibility 8 miles    
Events Rain , Thunderstorm    
T = Trace of Precipitation, MM = Missing Value Source: NWS Daily Summary

Daily Weather History Graph

Daily Weather History Graph

Search for Another Location

Airport:

Trip Planner

Search our weather history database for the weather conditions in past years. The results will help you decide how hot, cold, wet, or windy it might be!

Date:

Astronomy

Jul. 17, 2013 Rise Set
Actual Time 6:45 AM CDT 8:27 PM CDT
Civil Twilight 6:19 AM CDT 8:53 PM CDT
Nautical Twilight 5:47 AM CDT 9:24 PM CDT
Astronomical Twilight 5:15 AM CDT 9:57 PM CDT
Moon 3:23 PM CDT (7/17) 1:43 AM CDT (7/17)
Length of Visible Light 14h 33m
Length of Day
13h 41m
Waxing Gibbous, 67% of the Moon is Illuminated
Jul 17
Waxing Gibbous
Jul 22
Full
Jul 29
Last Quarter
Aug 6
New
Aug 14
First Quarter

Hourly Weather History & Observations

Time (CDT) Temp. Heat Index Dew Point Humidity Pressure Visibility Wind Dir Wind Speed Gust Speed Precip Events Conditions
12:51 AM 79.0 °F - 73.9 °F 84% 30.05 in 7.0 mi SSE 11.5 mph - 0.00 in Rain Light Rain
12:58 AM 78.8 °F - 73.4 °F 83% 30.05 in 7.0 mi SSE 9.2 mph 18.4 mph 0.04 in Rain Light Rain
1:33 AM 78.8 °F - 73.4 °F 83% 30.05 in 10.0 mi ESE 5.8 mph - 0.08 in Rain Light Rain
1:51 AM 78.1 °F - 73.9 °F 87% 30.04 in 10.0 mi East 4.6 mph - 0.08 in   Scattered Clouds
2:51 AM 79.0 °F - 75.0 °F 88% 30.04 in 10.0 mi East 4.6 mph - N/A   Scattered Clouds
3:51 AM 79.0 °F - 73.9 °F 84% 30.03 in 10.0 mi ESE 5.8 mph - N/A   Partly Cloudy
4:51 AM 78.1 °F - 73.0 °F 84% 30.05 in 7.0 mi South 16.1 mph 25.3 mph 0.00 in Rain Light Rain
5:51 AM 75.9 °F - 72.0 °F 87% 30.03 in 10.0 mi NE 6.9 mph - 0.20 in Rain Light Rain
6:51 AM 78.1 °F - 73.0 °F 84% 30.06 in 10.0 mi East 6.9 mph - 0.01 in   Mostly Cloudy
7:51 AM 81.0 °F 86.7 °F 75.0 °F 82% 30.08 in 10.0 mi East 6.9 mph - 0.00 in   Mostly Cloudy
8:28 AM 80.6 °F 86.2 °F 75.2 °F 84% 30.08 in 10.0 mi ENE 6.9 mph - N/A   Scattered Clouds
8:51 AM 81.0 °F 86.7 °F 75.0 °F 82% 30.08 in 10.0 mi NE 10.4 mph - N/A   Scattered Clouds
9:05 AM 75.2 °F - 71.6 °F 89% 30.11 in 2.0 mi SE 20.7 mph 25.3 mph 0.04 in Rain Heavy Rain
9:14 AM 75.2 °F - 71.6 °F 89% 30.10 in 2.0 mi SE 5.8 mph - 0.29 in Rain Heavy Rain
9:33 AM 75.2 °F - 71.6 °F 89% 30.11 in 9.0 mi ESE 4.6 mph - 0.37 in Rain , Thunderstorm Light Thunderstorms and Rain
9:51 AM 77.0 °F - 72.0 °F 84% 30.11 in 9.0 mi ESE 8.1 mph - 0.38 in Rain , Thunderstorm Light Thunderstorms and Rain
10:12 AM 78.8 °F - 73.4 °F 83% 30.11 in 9.0 mi East 5.8 mph - 0.02 in Rain Light Rain
10:51 AM 78.1 °F - 73.9 °F 87% 30.11 in 9.0 mi SSW 3.5 mph - 0.05 in Rain Light Rain
11:51 AM 79.0 °F - 73.9 °F 84% 30.11 in 10.0 mi East 5.8 mph - 0.01 in Rain Light Rain
12:01 PM 78.8 °F - 73.4 °F 83% 30.11 in 7.0 mi ENE 4.6 mph - 0.01 in Rain , Thunderstorm Light Thunderstorms and Rain
12:51 PM 77.0 °F - 71.1 °F 82% 30.12 in 4.0 mi ENE 8.1 mph - 0.08 in Rain , Thunderstorm Light Thunderstorms and Rain
1:07 PM 75.2 °F - 71.6 °F 89% 30.15 in 0.2 mi ESE 23.0 mph - 0.04 in Rain , Thunderstorm Heavy Thunderstorms and Rain
1:25 PM 75.2 °F - 71.6 °F 89% 30.13 in 0.2 mi ESE 11.5 mph - 0.72 in Rain , Thunderstorm Heavy Thunderstorms and Rain
1:28 PM 75.2 °F - 71.6 °F 89% 30.13 in 1.0 mi ESE 9.2 mph - 0.76 in Rain , Thunderstorm Heavy Thunderstorms and Rain
1:32 PM 75.2 °F - 71.6 °F 89% 30.13 in 3.0 mi SE 8.1 mph - 0.79 in Rain , Thunderstorm Thunderstorms and Rain
1:51 PM 75.9 °F - 72.0 °F 87% 30.13 in 3.0 mi East 5.8 mph - 0.81 in Rain , Thunderstorm Thunderstorms and Rain
2:26 PM 75.2 °F - 71.6 °F 89% 30.12 in 8.0 mi SSE 4.6 mph - 0.06 in Rain Light Rain
2:51 PM 75.9 °F - 72.0 °F 87% 30.12 in 10.0 mi SE 5.8 mph - 0.08 in Rain Light Rain
3:51 PM 75.9 °F - 72.0 °F 87% 30.10 in 7.0 mi ESE 6.9 mph - 0.14 in Rain Light Rain
4:51 PM 77.0 °F - 73.0 °F 88% 30.08 in 10.0 mi SE 4.6 mph - 0.04 in Rain Light Rain
5:51 PM 79.0 °F - 73.9 °F 84% 30.08 in 10.0 mi ESE 10.4 mph - 0.00 in   Scattered Clouds
6:51 PM 80.1 °F 84.5 °F 73.9 °F 81% 30.07 in 10.0 mi East 9.2 mph - N/A   Partly Cloudy
7:51 PM 80.1 °F 84.2 °F 73.0 °F 79% 30.07 in 10.0 mi East 6.9 mph - N/A   Partly Cloudy
8:51 PM 79.0 °F - 73.0 °F 82% 30.08 in 10.0 mi NE 5.8 mph - N/A   Scattered Clouds
9:51 PM 78.1 °F - 73.9 °F 87% 30.09 in 10.0 mi NE 6.9 mph - N/A   Partly Cloudy
10:51 PM 78.1 °F - 73.0 °F 84% 30.10 in 10.0 mi NE 6.9 mph - N/A   Partly Cloudy
11:51 PM 78.1 °F - 73.9 °F 87% 30.09 in 10.0 mi NE 9.2 mph - N/A   Partly Cloudy